Погода в Ряжске

Погода в Ряжске : погода сейчас, прогноз погоды и архив. Всё, что Вы хотите узнать о погоде в Ряжске!

Хотите узнать прогноз погоды в Ряжске? Тогда Вам сюда: Погода в Ряжске

Поиск расширенной информации на нашем сайте:

Другие новости

Новости СМИ2

Главная страница сайта

Новости сайта

03.07.2017

Напоминаем, что на нашем специализированном сайте Метеоцентр.Азия вы можете получить высокодетализированные автоматические прогнозы погоды по пунктам России, СНГ и мира в авиационном формате (включающие направление и скорость ветра, видимость, явления погоды, количество и форму облачности, нижнюю и верхнюю границу облачности).


Погода в Ряжске - сегодня

Время (UTC), дата Ветер
(°,м/с) 
Видим.   Явления Облачность Т
(°С)
Тd
(°С)
f(%) Тe
(°С)
Pmin
(гПа)
dP
(гПа)
Po
(мм)
O2
(г/м3)
Тmin Tmax R s Состояние
почвы
03 14.10.18 тихо ()   4000 м  дымка  3/0 верхняя 
[Ci sp]
+3.2 +3 99 +3  1026.5  -0.3  758  301  +3        сухая 
06 14.10.18 300 (СЗ) 4000 м    9/0 верхняя 
[Ci sp]
+8.2 +8 99 +9  1026.3  0.1  758  295  +2.3         
09 14.10.18 300 (СЗ) 10 км    8/0 верхняя 
[Ci sp]
+15.8 +9.1 64 +17  1025.8  -0.1  758  287           
12 14.10.18 320 (СЗ) 10 км    3/0 верхняя 
[Ci sp]
+18.4 +9.2 55 +19  1024.4  -1.3  757  284           
18 14.10.18 300 (СЗ) н/о    9/0 верхняя 
[Ci sp]
+13 +9.5 79 +14  1025  0.4  757  290           
21 14.10.18 300 (СЗ) 4000 м  дымка  ясно 
+9.9 +8.8 93 +11  1025.3  0.1  757  293           
00 15.10.18 290 (З) 4000 м  дымка  ясно 
+9.6 +8.7 94 +11  1025.6  0.2  758  293           
03 15.10.18 310 (СЗ) 4000 м  дымка  ясно 
+8.4 +7.9 97 +9  1026  0.4  758  295  +8.3        сухая 
06 15.10.18 330 (СЗ) 10 км    ясно 
+12.5 +10.1 85 +15  1026.6  0.8  758  290  +8.1         
09 15.10.18 290 (З) 10 км    ясно 
+18.7 +10 57 +21  1026.6  0.3  759  284           
12 15.10.18 310 (СЗ) 10 км    ясно 
+21.5 +6.1 37 +22  1026.1  -0.3  758  282           
15 15.10.18 270 (З) 10 км    ясно 
+12.6 +8 74 +14  1026.7  758  291    +21.7       
18 15.10.18 260 (З) 4000 м  дымка  ясно 
+7.4 +6.2 92 +8  1027.5  0.6  759  297           
21 15.10.18 170 (Ю) 4000 м  дымка  ясно 
+4.8 +4.4 97 +6  1027.7  759  300           
00 16.10.18 тихо ()   4000 м  дымка  ясно 
+3.5 +3.3 99 +4  1028.2  0.5  759  302           
03 16.10.18 190 (Ю) 4000 м  дымка  ясно 
+2.2 +2 99 +3  1028.7  0.3  759  303  +0.2        сухая 
06 16.10.18 210 (ЮЗ) 4000 м  дымка  8/0 верхняя 
[Ci sp]
+6.9 +6.6 98 +8  1028.3  -0.1  759  297           
09 16.10.18 260 (З) 10 км    8/0 верхняя 
[Ci sp]
+17.4 +8.4 55 +18  1027.1  -0.5  759  286           
12 16.10.18 290 (З) 10 км    8/0 верхняя 
[Ci sp]
+19.1 +5.5 41 +20  1026.1  -1  758  285           
18 16.10.18 тихо ()   н/о    4/0 верхняя 
[Ci sp]
+7.1 +5.4 89 +7  1025.9  -0.3  758  297           
21 16.10.18 190 (Ю) 4000 м  дымка  3/0 верхняя 
[Ci sp]
+5.9 +5.3 96 +7  1025.5  -0.5  757  298           
00 17.10.18 220 (ЮЗ) 4000 м  дымка  ясно 
+4.5 +4 97 +5  1025.6  0.1  757  300           
03 17.10.18 170 (Ю) 4000 м  дымка  3/0 верхняя 
[Ci sp]
+3.6 +3.3 98 +4  1025.2  -0.5  757  301  +3.5        сухая 
06 17.10.18 250 (З) 4000 м  дымка  ясно 
+9.6 +7.7 88 +11  1025.5  0.7  758  294  +3.3         
09 17.10.18 270 (З) 10 км    ясно 
+16.7 +6.3 50 +18  1025.3  0.2  758  287           
Время (UTC), дата Ветер
(°,м/с) 
Видим.   Явления Облачность Т
(°С)
Тd
(°С)
f(%) Тe
(°С)
Pmin
(гПа)
dP
(гПа)
Po
(мм)
O2
(г/м3)
Тmin Tmax R s Состояние
почвы

Для получения пояснительной информации подведите курсор к названию столбца.

ПОГОДА в Ряжске - архив

Всё, что Вы хотите узнать о погоде в Ряжске - удобно и подробно!

Выберите нужную дату (начиная с 1 января 2015* года) и нажмите кнопку "Найти".
Будут отображены архивные сводки погоды по пункту Ряжск, начиная с указанной даты.


Отображать данные в формате CSV (для использования в таблицах Excel)


Внимание! Наш архив погоды предназначен исключительно для личного некоммерческого использования в познавательных целях. Если Вам необходимы официальные справки о состоянии погоды (для производственных, юридических, коммерческих и т.п. целей), обращайтесь в органы Росгидромета.

*Примечание: данная дата относится к архиву по метеостанциям СССР (Россия, СНГ, Балтия).
Архив по метеостанциям Зарубежной Европы и Азии (кроме Китая) хранится 10 дней, по другим регионам земного шара (Китай, Африка, Америка, Австралия, Океания) - 1 день.

Ряжск - район местоположения метеостанции


Название, широта, долгота, высота метеостанции:
Ряжск 53.7°ш. 40.1°д. 127 м над ур. моря [Российская Федерация]

Дополнительная информация

В oтличие oт бoльшинства пoгoдных сайтoв мы публикуем пoдрoбную метеoинфoрмацию в детальнoм прoфессиoнальнoм фoрмате.

Характеристики температуры и влажнoсти вoздуха измеряются на высoте 2 м в тени вдали oт зданий и деревьев.
Скoрoсть ветра измеряется на высoте 10 м (на урoвне рoста челoвека скoрoсть ветра ниже в 1.5-2 раза). Если метеoстанция нахoдится в гoрoде или в лесу, тo скoрoсть ветра занижена на 2-4 м/с пo сравнению с oткрытым местoм. Скoрoсть ветра над акватoриями крупных рек и oзёр, а также на вершинах хoлмoв на 2-5 м/с выше, чем в oбычных услoвиях.
Атмoсфернoе давление в разных тoчках местнoсти мoжет значительнo oтличаться oт давления на метеoстанции, в зависимoсти oт услoвий рельефа (при пoдъёме на 10 м давление пoнижается примернo на 1 мм рт.ст.).